Regional Weather Roundup
Issued by NWS

Home | Current Version | Previous Version | Graphics & Text | Print | Product List | Glossary On
Versions: 1 2 3 4 5 6 7 8 9 10 11 12 13 14 15 16 17 18 19 20 21 22 23 24 25 26 27 28 29 30 31 32 33 34 35 36 37 38 39 40 41 42 43 44 45 46 47 48 49 50
000
ASUS43 KLMK 282302
RWRKY
KENTUCKY REGIONAL WEATHER ROUNDUP
NATIONAL WEATHER SERVICE LOUISVILLE KY
700 PM EDT MON JUL 28 2014

NOTE "FAIR" INDICATES FEW OR NO CLOUDS BELOW 12,000 FEET
WITH NO SIGNIFICANT WEATHER AND/OR OBSTRUCTIONS TO VISIBILITY.

KYZ001>023-026-027-061>063-070>075-290000-
WESTERN AND SOUTH CENTRAL KENTUCKY

CITY           SKY/WX    TMP DP  RH WIND       PRES   REMARKS
PADUCAH        PTSUNNY   80  61  52 N9        30.02S
HENDERSON      MOSUNNY   75  57  53 N8G18     30.02S
OWENSBORO      SUNNY     77  58  51 N9        30.02S
HOPKINSVILLE   MOSUNNY   81  58  46 NW14      30.00F
BOWLING GREEN  MOSUNNY   79  56  45 NW9G17    30.00S
GLASGOW        PTSUNNY   78  58  50 NW8       29.99S
$$

KYZ024-025-028>034-038-045-046-053-290000-
NORTH CENTRAL KENTUCKY

CITY           SKY/WX    TMP DP  RH WIND       PRES   REMARKS
LOUISVILLE/SDF PTSUNNY   75  59  57 N12       29.99S
LOUISVILLE/LOU MOSUNNY   75  58  55 N7        30.00S
FORT KNOX      SUNNY     75  61  60 NW9       29.98F
$$

KYZ035>037-039>044-047>052-055>060-089>105-290000-
NORTHEAST KENTUCKY

CITY           SKY/WX    TMP DP  RH WIND       PRES   REMARKS
LEXINGTON      PTSUNNY   73  60  63 NW14      30.00S
COVINGTON      PTSUNNY   72  56  57 W13       29.98S
FRANKFORT      SUNNY     73  58  59 NW10      29.99F
$$

KYZ054-064>069-076>088-106>120-290000-
SOUTHEAST KENTUCKY

CITY           SKY/WX    TMP DP  RH WIND       PRES   REMARKS
JACKSON        CLOUDY    68  58  70 NW6       29.98F
LONDON         PTSUNNY   74  57  55 N10       30.00R
SOMERSET       CLOUDY    72  57  60 N7        30.00F
MIDDLESBORO    PTSUNNY   76  61  60 NW7       29.97S
MONTICELLO     PTCLDY    77  62  59 N8        30.00F
$$




USA.gov is the U.S. government's official web portal to all federal, state and local government web resources and services.